Tracking 29892 objects as of 21-Nov-2024
HD Live streaming from Space Station
objects crossing your sky now

STARLINK-1893

Track STARLINK-1893 now!
10-day predictions
STARLINK-1893 is classified as:


NORAD ID: 46786
Int'l Code: 2020-074AZ
Perigee: 553.4 km
Apogee: 555.3 km
Inclination: 53.1 °
Period: 95.6 minutes
Semi major axis: 6925 km
RCS: Unknown
Launch date: October 24, 2020
Source: United States (US)
Launch site: AIR FORCE EASTERN TEST RANGE (AFETR)
Your satellite tracking list
Your tracking list is empty




NASA's NSSDC Master Catalog

Two Line Element Set (TLE):
1 46786U 20074AZ  24325.09189880  .00009834  00000-0  67799-3 0  9998
2 46786  53.0543 262.1676 0001355  96.6124 263.5019 15.06408047225241
Source of the keplerian elements: AFSPC